TimeEDT,TemperatureF,Dew PointF,Humidity,Sea Level PressureIn,VisibilityMPH,Wind Direction,Wind SpeedMPH,Gust SpeedMPH,PrecipitationIn,Events,Conditions,WindDirDegrees,DateUTC
12:11 AM,44.6,44.6,100,30.31,10.0,Calm,Calm,-,N/A,,Mostly Cloudy,0,2013-09-28 04:11:00
12:42 AM,44.6,44.6,100,30.31,1.2,Calm,Calm,-,N/A,,Overcast,0,2013-09-28 04:42:00
12:49 AM,44.6,42.8,93,30.31,0.2,Calm,Calm,-,N/A,Fog,Fog,0,2013-09-28 04:49:00
12:50 AM,44.1,43.0,96,30.32,0.2,Calm,Calm,-,N/A,Fog,Fog,0,2013-09-28 04:50:00
1:14 AM,44.6,42.8,93,30.31,0.5,Calm,Calm,-,N/A,Fog,Fog,0,2013-09-28 05:14:00
1:24 AM,44.6,44.6,100,30.32,0.2,Calm,Calm,-,N/A,Fog,Fog,0,2013-09-28 05:24:00
1:54 AM,43.0,43.0,100,30.33,0.2,Calm,Calm,-,N/A,Fog,Fog,0,2013-09-28 05:54:00
2:10 AM,42.8,42.8,100,30.32,1.0,Calm,Calm,-,N/A,,Overcast,0,2013-09-28 06:10:00
2:30 AM,42.8,42.8,100,30.32,3.0,Calm,Calm,-,N/A,,Overcast,0,2013-09-28 06:30:00
2:34 AM,42.8,42.8,100,30.32,1.8,Calm,Calm,-,N/A,,Overcast,0,2013-09-28 06:34:00
2:44 AM,42.8,42.8,100,30.32,0.5,Calm,Calm,-,N/A,Fog,Fog,0,2013-09-28 06:44:00
2:54 AM,43.0,42.1,97,30.33,0.2,Calm,Calm,-,N/A,Fog,Fog,0,2013-09-28 06:54:00
3:13 AM,42.8,41.0,93,30.32,1.0,Calm,Calm,-,N/A,,Mist,0,2013-09-28 07:13:00
3:24 AM,42.8,41.0,93,30.32,0.5,Calm,Calm,-,N/A,Fog,Fog,0,2013-09-28 07:24:00
3:45 AM,41.0,41.0,100,30.32,1.8,Calm,Calm,-,N/A,,Overcast,0,2013-09-28 07:45:00
3:54 AM,42.1,42.1,100,30.34,1.5,Calm,Calm,-,N/A,,Overcast,0,2013-09-28 07:54:00
4:07 AM,42.8,42.8,100,30.33,0.5,Calm,Calm,-,N/A,Fog,Fog,0,2013-09-28 08:07:00
4:36 AM,41.0,41.0,100,30.33,0.2,Calm,Calm,-,N/A,Fog,Fog,0,2013-09-28 08:36:00
4:54 AM,42.1,42.1,100,30.34,0.2,Calm,Calm,-,N/A,Fog,Fog,0,2013-09-28 08:54:00
5:14 AM,41.0,41.0,100,30.33,0.5,Calm,Calm,-,N/A,Fog,Fog,0,2013-09-28 09:14:00
5:50 AM,41.0,41.0,100,30.35,0.2,Calm,Calm,-,N/A,Fog,Fog,0,2013-09-28 09:50:00
5:54 AM,42.1,41.0,96,30.36,0.2,Calm,Calm,-,N/A,Fog,Fog,0,2013-09-28 09:54:00
6:25 AM,42.8,42.8,100,30.35,0.5,Calm,Calm,-,N/A,Fog,Fog,0,2013-09-28 10:25:00
6:36 AM,42.8,42.8,100,30.36,0.2,Calm,Calm,-,N/A,Fog,Fog,0,2013-09-28 10:36:00
6:54 AM,42.1,42.1,100,30.38,0.2,Calm,Calm,-,N/A,Fog,Fog,0,2013-09-28 10:54:00
7:54 AM,43.0,43.0,100,30.39,0.2,Calm,Calm,-,N/A,Fog,Fog,0,2013-09-28 11:54:00
8:54 AM,44.1,44.1,100,30.40,0.2,Calm,Calm,-,N/A,Fog,Fog,0,2013-09-28 12:54:00
9:25 AM,46.4,46.4,100,30.38,0.5,Calm,Calm,-,N/A,Fog,Fog,0,2013-09-28 13:25:00
9:33 AM,46.4,46.4,100,30.38,2.5,Calm,Calm,-,N/A,,Overcast,0,2013-09-28 13:33:00
9:40 AM,46.4,46.4,100,30.38,10.0,Calm,Calm,-,N/A,,Mostly Cloudy,0,2013-09-28 13:40:00
9:54 AM,48.9,48.0,97,30.40,10.0,Calm,Calm,-,N/A,,Scattered Clouds,0,2013-09-28 13:54:00
10:54 AM,57.9,51.1,78,30.38,10.0,Calm,Calm,-,N/A,,Clear,0,2013-09-28 14:54:00
11:54 AM,64.9,53.1,65,30.36,10.0,SE,4.6,-,N/A,,Clear,130,2013-09-28 15:54:00
12:54 PM,70.0,52.0,53,30.34,10.0,Variable,6.9,-,N/A,,Clear,0,2013-09-28 16:54:00
1:54 PM,70.0,51.1,51,30.31,10.0,South,6.9,-,N/A,,Partly Cloudy,170,2013-09-28 17:54:00
2:54 PM,72.0,48.0,43,30.30,10.0,ENE,5.8,-,N/A,,Clear,70,2013-09-28 18:54:00
3:54 PM,72.0,45.0,38,30.29,10.0,Variable,4.6,-,N/A,,Clear,0,2013-09-28 19:54:00
4:54 PM,73.0,42.1,33,30.28,10.0,Calm,Calm,-,N/A,,Clear,0,2013-09-28 20:54:00
5:54 PM,66.9,48.9,52,30.28,10.0,NNW,4.6,-,N/A,,Clear,340,2013-09-28 21:54:00
6:54 PM,57.9,51.1,78,30.29,10.0,Calm,Calm,-,N/A,,Clear,0,2013-09-28 22:54:00
7:54 PM,53.1,50.0,89,30.30,10.0,Calm,Calm,-,N/A,,Clear,0,2013-09-28 23:54:00
8:54 PM,52.0,50.0,93,30.30,10.0,Calm,Calm,-,N/A,,Clear,0,2013-09-29 00:54:00
9:54 PM,50.0,48.0,93,30.30,10.0,Calm,Calm,-,N/A,,Clear,0,2013-09-29 01:54:00
10:41 PM,48.2,46.4,93,30.29,10.0,Calm,Calm,-,N/A,,Scattered Clouds,0,2013-09-29 02:41:00
10:54 PM,46.9,46.0,97,30.30,10.0,Calm,Calm,-,N/A,,Partly Cloudy,0,2013-09-29 02:54:00
11:39 PM,46.4,46.4,100,30.29,4.0,Calm,Calm,-,N/A,,Mostly Cloudy,0,2013-09-29 03:39:00
11:46 PM,46.4,46.4,100,30.29,1.5,Calm,Calm,-,N/A,,Mostly Cloudy,0,2013-09-29 03:46:00
11:54 PM,46.9,46.0,97,30.30,1.0,Calm,Calm,-,N/A,,Mist,0,2013-09-29 03:54:00